CZ-6A DEB, 64648

Orbit data source: Space-Track

CZ-6A DEB, 64648 is space debris in LEO originally from a launch on Tue, 06 Aug 2024 UTC launched from the Taiyaun Space Center, China (TSC). Debris objects in space refer to the collection of defunct objects orbiting the Earth. Examples of debris include non-operational satellites, rocket bodies, and fragments generated from explosions, collisions, or faulty payload assembly.

Loading next visibility...
Identifier
64648, 2024-140AEN
Orbit
LEO
Country
Flag of CNCN / PRC
Related business
Manufacturer
SAST
Mission
Spacecraft
Bus & Motor
Unknown
Mass
Unknown
Launch date (UTC)
2024-08-06 (2 years ago)
Launch vehicle
Unknown
Launch site
Taiyaun Space Center, China (TSC)
Object type
Payload
Rocket body
Debris
Shape & HBR
Unknown shape, 0.1 m
Radar Cross Section
Medium (>0.1 m² and <1 m²)

Expand to show TLE details & history
Last TLE update: 14 hours ago

TLE from 14 hours ago
0 CZ-6A DEB
1 64648U 24140AEN 26171.24958420  .00001988  00000-0  84730-3 0  9991
2 64648  88.9906 273.3656 0045907 173.3992 186.7815 14.24214413 87941
Epoch: 2026-06-20T05:59Z
TLE epoch observation values (Epoch: 2026-06-20T05:59:24.074Z)
Latitude
-0.00009°
Longitude
-84.95162°
Altitude
846.976 km
Speed
7.412 km/s
True Right ascension
18h 13m 27s
True Declination
0° 00' 00"
Sunlit
Object was in full shadow at epoch
Visualization orbit readout
Latitude
Unknown
Longitude
Unknown
Altitude
Unknown
Speed
Unknown
Apparent Right ascension
Unknown
Apparent Declination
Unknown
Sunlit
N/A
Visualization observer readout
Local Sidereal Time
07:20:23
Azimuth
Unknown
Elevation
Unknown
Doppler factor
Unknown
Orbital elements
Apogee altitude
841.07 km
Perigee altitude
775.091 km
Semi-major axis
7,186.217 km
Eccentricity
0.00459
Inclination
88.9906°
RAAN
273.3656°
Arg. of periapsis
173.3992°
True anomaly
186.71973°
Mean anomaly
186.7815°
Eccentric anomaly
186.75058°
Mean motion
3.56281 °/min
Orbital period
101.04 mins
BSTAR
0.0008473
Loading maneuver chart data...
Computing Atmospheric mass density...
Loading historical data...
Loading historical data...
Loading historical data...
Loading historical data...
Loading historical data...
Loading historical data...
Loading historical data...

Documentation

Showing up to 5 results
|